This is the latest recevied weather packets stored in our database for station/object KM4RT-13. If no packets are shown the sender has not sent any weather packets the latest 10 day(s).
| Time | Temp. | Humidity | Pressure | Rain* | Wind** | Luminosity | Snow |
|---|---|---|---|---|---|---|---|
| 1777849965 | 22.22° C | 36% | 1013 hPa | 0 mm | - | 67 W/m² | - |
| 1777849660 | 22.22° C | 37% | 1013.2 hPa | 0 mm | - | 79 W/m² | - |
| 1777849358 | 22.22° C | 36% | 1013.1 hPa | 0 mm | - | 144 W/m² | - |
| 1777849056 | 22.22° C | 38% | 1013.1 hPa | 0 mm | - | 149 W/m² | - |
| 1777848756 | 22.22° C | 39% | 1013.4 hPa | 0 mm | - | 150 W/m² | - |
| 1777848453 | 22.22° C | 36% | 1013.2 hPa | 0 mm | - | 183 W/m² | - |
| 1777848151 | 22.22° C | 37% | 1013.4 hPa | 0 mm | - | 143 W/m² | - |
| 1777847848 | 22.78° C | 35% | 1013.5 hPa | 0 mm | - | 209 W/m² | - |
| 1777847545 | 22.78° C | 35% | 1013.4 hPa | 0 mm | - | 113 W/m² | - |
| 1777847241 | 22.78° C | 35% | 1013.5 hPa | 0 mm | - | 48 W/m² | - |
| 1777846939 | 22.22° C | 36% | 1013.6 hPa | 0 mm | - | 47 W/m² | - |
| 1777846638 | 22.22° C | 38% | 1013.6 hPa | 0 mm | - | 48 W/m² | - |
| 1777846335 | 22.22° C | 36% | 1013.5 hPa | 0 mm | - | 49 W/m² | - |
| 1777846031 | 22.22° C | 35% | 1013.8 hPa | 0 mm | - | 50 W/m² | - |
| 1777845728 | 22.78° C | 34% | 1013.6 hPa | 0 mm | - | 51 W/m² | - |
| 1777845425 | 22.22° C | 35% | 1013.9 hPa | 0 mm | - | 52 W/m² | - |
| 1777845122 | 22.22° C | 36% | 1013.8 hPa | 0 mm | - | 72 W/m² | - |
| 1777844820 | 22.22° C | 36% | 1014 hPa | 0 mm | - | 53 W/m² | - |
| 1777844515 | 22.22° C | 35% | 1014.1 hPa | 0 mm | - | 54 W/m² | - |
| 1777844209 | 22.78° C | 35% | 1014.2 hPa | 0 mm | - | 135 W/m² | - |
| 1777843906 | 22.78° C | 35% | 1014.1 hPa | 0 mm | - | 396 W/m² | - |
| 1777843603 | 22.78° C | 33% | 1014.2 hPa | 0 mm | - | 416 W/m² | - |
| 1777843301 | 22.78° C | 34% | 1014.3 hPa | 0 mm | - | 430 W/m² | - |
| 1777842998 | 22.22° C | 35% | 1014.6 hPa | 0 mm | - | 444 W/m² | - |
| 1777842693 | 22.22° C | 34% | 1014.5 hPa | 0 mm | - | 458 W/m² | - |
* Rain latest hour (hover to see other rain measurements)
** Current wind speed in m/s (hover to see current wind gust speed)